TimeEDT,TemperatureF,Dew PointF,Humidity,Sea Level PressureIn,VisibilityMPH,Wind Direction,Wind SpeedMPH,Gust SpeedMPH,PrecipitationIn,Events,Conditions,WindDirDegrees,DateUTC
12:54 AM,72.0,43.0,35,29.78,10.0,SW,15.0,28.8,N/A,,Overcast,230,2011-10-26 04:54:00
1:54 AM,70.0,45.0,41,29.77,10.0,WSW,18.4,27.6,N/A,,Scattered Clouds,240,2011-10-26 05:54:00
2:54 AM,69.1,46.0,44,29.76,10.0,WSW,19.6,32.2,N/A,,Clear,240,2011-10-26 06:54:00
3:54 AM,66.9,46.9,49,29.76,10.0,WSW,9.2,-,N/A,,Clear,250,2011-10-26 07:54:00
4:54 AM,64.9,48.0,54,29.76,10.0,WSW,6.9,-,N/A,,Clear,250,2011-10-26 08:54:00
5:54 AM,64.0,48.0,56,29.76,10.0,West,5.8,-,N/A,,Clear,260,2011-10-26 09:54:00
6:54 AM,63.0,48.9,60,29.78,10.0,West,4.6,-,N/A,,Clear,260,2011-10-26 10:54:00
7:54 AM,60.1,48.9,67,29.79,10.0,WSW,3.5,-,N/A,,Partly Cloudy,240,2011-10-26 11:54:00
8:54 AM,57.9,50.0,75,29.81,10.0,Calm,Calm,-,N/A,,Mostly Cloudy,0,2011-10-26 12:54:00
9:54 AM,62.1,51.1,67,29.81,10.0,North,3.5,-,N/A,,Scattered Clouds,350,2011-10-26 13:54:00
10:54 AM,60.1,52.0,75,29.82,8.0,North,9.2,-,N/A,,Clear,360,2011-10-26 14:54:00
11:54 AM,60.1,52.0,75,29.83,4.0,North,10.4,-,N/A,,Haze,360,2011-10-26 15:54:00
12:16 PM,57.2,51.8,82,29.85,5.0,North,12.7,-,N/A,,Haze,10,2011-10-26 16:16:00
12:28 PM,57.2,51.8,82,29.86,5.0,North,13.8,-,N/A,,Haze,350,2011-10-26 16:28:00
12:35 PM,55.4,51.8,88,29.86,5.0,North,15.0,-,N/A,,Haze,350,2011-10-26 16:35:00
12:54 PM,55.0,51.1,86,29.85,3.0,North,9.2,-,N/A,,Overcast,350,2011-10-26 16:54:00
1:54 PM,55.9,50.0,80,29.84,6.0,North,8.1,17.3,N/A,,Haze,360,2011-10-26 17:54:00
3:54 PM,53.1,48.0,83,29.86,10.0,NNW,11.5,-,N/A,,Overcast,330,2011-10-26 19:54:00
4:54 PM,53.1,48.0,83,29.85,9.0,North,10.4,-,N/A,,Overcast,10,2011-10-26 20:54:00
5:04 PM,53.6,48.2,82,29.85,8.0,North,9.2,-,N/A,,Overcast,10,2011-10-26 21:04:00
5:54 PM,52.0,48.0,86,29.87,7.0,NW,11.5,-,N/A,,Overcast,320,2011-10-26 21:54:00
6:54 PM,51.1,48.0,89,29.87,5.0,NNW,5.8,-,0.03,Rain,Rain,330,2011-10-26 22:54:00
7:25 PM,50.0,48.2,94,29.87,5.0,North,10.4,-,0.03,Rain,Light Rain,350,2011-10-26 23:25:00
7:54 PM,50.0,48.0,93,29.88,5.0,North,11.5,-,0.05,Rain,Light Rain,360,2011-10-26 23:54:00
8:54 PM,50.0,46.9,89,29.91,8.0,NW,5.8,-,0.04,,Overcast,310,2011-10-27 00:54:00
9:54 PM,48.9,46.9,93,29.90,8.0,NNW,9.2,-,0.00,,Overcast,340,2011-10-27 01:54:00
10:16 PM,48.2,46.4,93,29.90,9.0,NNW,8.1,-,N/A,,Overcast,340,2011-10-27 02:16:00
10:54 PM,48.9,46.9,93,29.90,10.0,North,6.9,-,0.00,,Overcast,350,2011-10-27 02:54:00
11:06 PM,48.2,46.4,93,29.90,9.0,NNW,6.9,-,N/A,,Overcast,340,2011-10-27 03:06:00
11:54 PM,48.9,46.0,90,29.90,10.0,NNW,8.1,-,N/A,,Overcast,330,2011-10-27 03:54:00